Regional Weather Roundup
Issued by NWS

Home | Current Version | Previous Version | Text Only | Print | Product List | Glossary Off
Versions: 1 2 3 4 5 6 7 8 9 10 11 12 13 14 15 16 17 18 19 20 21 22 23 24 25 26 27 28 29 30 31 32 33 34 35 36 37 38 39 40 41 42 43 44 45 46 47 48 49 50

000
ASUS45 KSLC 290610
RWRUT

UTAH REGIONAL WEATHER ROUNDUP
NATIONAL WEATHER SERVICE SALT LAKE CITY UT
1100 PM MST FRI NOV 28 2014

UTZ001>011-023>025-290700-

NORTHERN UTAH

CITY           SKY/WX    TMP DP  RH WIND       PRES   REMARKS
BRIGHAM CITY   PTCLDY    53  19  26 S14       29.75F
HILL AFB       CLOUDY    54  18  24 S18       29.76F
LOGAN          CLEAR     53  20  27 VRB3      29.73F
OGDEN          PTCLDY    55  18  23 S17G26    29.75S
PROVO AIRPORT  PTCLDY    39  21  48 CALM      29.85S
SALT LAKE CITY MOCLDY    59  12  15 S24G35    29.75F
VERNAL         PTCLDY    31  20  63 W6        29.91S WCI  25
WENDOVER       CLEAR     41  16  36 W3        29.76F
HEBER CITY     MOCLDY    36  21  55 S5        29.86S WCI  32
WEST JORDAN    CLEAR     55  25  30 SE22G33   29.79S

$$

UTZ012>022-026-027-290700-

SOUTHERN/CENTRAL UTAH

CITY           SKY/WX    TMP DP  RH WIND       PRES   REMARKS
BLANDING       MOCLDY    33  16  49 N5        30.10S WCI  28
BRYCE CANYON   CLEAR     25  10  53 W9        30.06F WCI  15
CEDAR CITY     PTCLDY    42  13  30 W8        29.96F
DELTA          PTCLDY    49  13  24 S16       29.87F
MILFORD        CLEAR     42  14  32 SW23      29.92S
MOAB/CYNLANDS  CLEAR     29  17  61 W3        29.94F
PRICE          PTCLDY    31  21  66 NE9       29.96F WCI  23
ST GEORGE      MOCLDY    43  16  33 CALM      29.96S
KANAB          CLEAR     30   9  40 NE7       30.04S WCI  23

$$

REGIONAL REPORTS     COLORADO/ARIZONA

CITY           SKY/WX    TMP DP  RH WIND       PRES   REMARKS
CRAIG, CO      CLEAR     29  20  69 CALM      29.91F
GRAND JUNCTION PTCLDY    32  23  69 CALM      29.96F
RIFLE          CLEAR     27  23  85 CALM      29.99F
MONTROSE       CLEAR     29  19  66 SE9       30.01F WCI  20
CORTEZ         CLEAR     24  14  65 NE5       30.06S WCI  18
PAGE, AZ       PTCLDY    42  21  43 CALM      29.99S
GRAND CANYON   PTCLDY    23   5  46 CALM      30.11S
KINGMAN        CLEAR     42  12  29 CALM      29.98S
FLAGSTAFF      PTCLDY    35  15  44 W3        30.13F

$$

REGIONAL REPORTS    NEVADA/IDAHO/WYOMING

CITY           SKY/WX    TMP DP  RH WIND       PRES   REMARKS
LAS VEGAS, NV  CLEAR     53  22  29 SW7       29.86F
ELY            CLEAR     43  12  28 S18       29.90F
ELKO           PTCLDY    37  17  44 N3        29.78F
POCATELLO, ID  PTCLDY    48  20  32 S9        29.71R
BURLEY         CLOUDY    50  19  29 W7        29.69S
EVANSTON, WY   PTCLDY    40  17  39 SW16      29.82F WCI  31
ROCK SPRINGS   CLEAR     42  11  28 SW17      29.80F

$$



USA.gov is the U.S. government's official web portal to all federal, state and local government web resources and services.